Weather History for Danbury, CT

Change the Weather History Date:

Friday, February 8, 2013

  Actual Average Record
Temperature  
Mean Temperature 27 °F -  
Max Temperature 30 °F 33 °F 58 °F (1965)
Min Temperature 24 °F 16 °F -6 °F (1963)
Degree Days  
Heating Degree Days 38    
Moisture  
Dew Point 25 °F    
Average Humidity 88    
Maximum Humidity 100    
Minimum Humidity 63    
Precipitation  
Precipitation 0.50 in - - ()
Sea Level Pressure  
Sea Level Pressure 29.95 in    
Wind  
Wind Speed 11 mph (NE)    
Max Wind Speed 24 mph    
Max Gust Speed 33 mph    
Visibility 2 miles    
Events Fog , Snow    
Averages and records for this station are not official NWS values.
T = Trace of Precipitation, MM = Missing Value Source: NWS Daily Summary

Daily Weather History Graph

Daily Weather History Graph

Search for Another Location

Airport:

Trip Planner

Search our weather history database for the weather conditions in past years. The results will help you decide how hot, cold, wet, or windy it might be!

Date:

Astronomy

Feb. 08, 2013 Rise Set
Actual Time 6:57 AM EST 5:19 PM EST
Civil Twilight 6:28 AM EST 5:48 PM EST
Nautical Twilight 5:55 AM EST 6:20 PM EST
Astronomical Twilight 5:23 AM EST 6:53 PM EST
Moon 5:24 AM EST (2/8) 3:49 PM EST (2/8)
Length of Visible Light 11h 19m
Length of Day
10h 21m
Waning Crescent, 3% of the Moon is Illuminated
Feb 8
Waning Crescent
Feb 10
New
Feb 17
First Quarter
Feb 25
Full
Mar 4
Last Quarter

Hourly Weather History & Observations

Time (EST) Temp. Windchill Dew Point Humidity Pressure Visibility Wind Dir Wind Speed Gust Speed Precip Events Conditions
12:26 AM 26.6 °F 19.1 °F 15.8 °F 64% 30.35 in 10.0 mi ENE 6.9 mph - N/A   Overcast
12:53 AM 27.0 °F 20.5 °F 16.0 °F 63% 30.36 in 10.0 mi NE 5.8 mph - N/A   Overcast
1:53 AM 28.0 °F 19.3 °F 17.1 °F 63% 30.34 in 10.0 mi ENE 9.2 mph - N/A   Overcast
2:53 AM 27.0 °F 16.7 °F 18.0 °F 69% 30.32 in 10.0 mi East 11.5 mph - N/A   Overcast
3:53 AM 27.0 °F 18.0 °F 17.1 °F 66% 30.28 in 10.0 mi East 9.2 mph - N/A   Overcast
4:53 AM 27.0 °F 19.5 °F 18.0 °F 69% 30.26 in 10.0 mi ENE 6.9 mph - N/A   Overcast
5:53 AM 28.0 °F 20.8 °F 19.9 °F 72% 30.23 in 10.0 mi East 6.9 mph - N/A   Overcast
6:20 AM 28.4 °F 20.4 °F 21.2 °F 74% 30.20 in 10.0 mi ENE 8.1 mph - N/A   Overcast
6:53 AM 28.0 °F 20.8 °F 21.9 °F 78% 30.20 in 10.0 mi ENE 6.9 mph - N/A   Overcast
7:53 AM 28.0 °F 20.8 °F 24.1 °F 85% 30.18 in 4.0 mi ENE 6.9 mph - 0.00 in   Overcast
8:11 AM 28.4 °F 19.1 °F 23.0 °F 80% 30.16 in 1.8 mi East 10.4 mph - 0.00 in Snow Light Snow
8:23 AM 28.4 °F 19.7 °F 24.8 °F 86% 30.16 in 0.8 mi East 9.2 mph - 0.00 in Snow Light Snow
8:31 AM 28.4 °F 18.5 °F 24.8 °F 86% 30.15 in 0.8 mi ENE 11.5 mph - 0.00 in Snow Light Snow
8:53 AM 28.0 °F 18.6 °F 25.0 °F 88% 30.16 in 0.8 mi ENE 10.4 mph - 0.00 in Snow Light Snow
9:16 AM 28.4 °F 18.5 °F 26.6 °F 93% 30.13 in 1.0 mi ENE 11.5 mph - 0.01 in Snow Light Snow
9:26 AM 28.4 °F 18.5 °F 26.6 °F 93% 30.12 in 1.5 mi ENE 11.5 mph - 0.01 in Snow Light Snow
9:34 AM 28.4 °F 19.7 °F 26.6 °F 93% 30.12 in 1.8 mi ENE 9.2 mph - 0.01 in Snow Light Snow
9:44 AM 28.4 °F 19.1 °F 26.6 °F 93% 30.11 in 2.0 mi ENE 10.4 mph - 0.01 in Snow Light Snow
9:53 AM 28.9 °F 20.4 °F 26.1 °F 89% 30.12 in 1.2 mi ENE 9.2 mph - 0.01 in Snow Light Snow
9:57 AM 28.4 °F 18.5 °F 26.6 °F 93% 30.10 in 1.2 mi ENE 11.5 mph - 0.00 in Snow Light Snow
10:07 AM 28.4 °F 20.4 °F 26.6 °F 93% 30.09 in 1.2 mi ENE 8.1 mph - 0.00 in Snow Light Snow
10:31 AM 28.4 °F 18.0 °F 26.6 °F 93% 30.07 in 1.0 mi ENE 12.7 mph 17.3 mph 0.00 in Snow Light Snow
10:41 AM 28.4 °F 18.5 °F 26.6 °F 93% 30.06 in 1.0 mi ENE 11.5 mph - 0.00 in Snow Light Snow
10:53 AM 30.0 °F 20.5 °F 27.0 °F 88% 30.07 in 1.0 mi ENE 11.5 mph - 0.00 in Snow Light Snow
10:55 AM 30.2 °F 20.8 °F 26.6 °F 86% 30.05 in 0.8 mi ENE 11.5 mph - 0.00 in Snow Light Snow
11:02 AM 28.4 °F 18.5 °F 28.4 °F 100% 30.05 in 0.8 mi ENE 11.5 mph 20.7 mph 0.01 in Snow Light Snow
11:40 AM 30.2 °F 19.8 °F 28.4 °F 93% 30.00 in 0.8 mi ENE 13.8 mph 21.9 mph 0.02 in Snow Light Snow
11:53 AM 30.0 °F 20.0 °F 28.0 °F 92% 30.01 in 0.8 mi ENE 12.7 mph 19.6 mph 0.02 in Snow Light Snow
12:29 PM 30.2 °F 19.3 °F 28.4 °F 93% 29.96 in 0.8 mi ENE 15.0 mph - 0.02 in Snow Light Snow
12:53 PM 30.0 °F 20.0 °F 28.0 °F 92% 29.95 in 0.5 mi ENE 12.7 mph - 0.03 in Fog , Snow Snow
1:14 PM 30.2 °F 20.2 °F 28.4 °F 93% 29.91 in 0.5 mi ENE 12.7 mph 21.9 mph 0.01 in Fog , Snow Snow
1:53 PM 30.0 °F 21.1 °F 28.0 °F 92% 29.89 in 0.5 mi NE 10.4 mph - 0.04 in Fog , Snow Snow
2:14 PM 30.2 °F 20.2 °F 28.4 °F 93% 29.86 in 0.5 mi NE 12.7 mph 20.7 mph 0.01 in Fog , Snow Snow
2:35 PM 30.2 °F 20.2 °F 28.4 °F 93% 29.84 in 0.2 mi NE 12.7 mph 20.7 mph 0.02 in Fog , Snow Snow
2:53 PM 30.0 °F 20.0 °F 28.9 °F 96% 29.83 in 0.2 mi NE 12.7 mph - 0.04 in Fog , Snow Snow
3:48 PM 30.2 °F 18.5 °F 28.4 °F 93% 29.77 in 0.5 mi NE 17.3 mph 25.3 mph 0.02 in Fog , Snow Snow
3:53 PM 30.9 °F 19.4 °F 28.9 °F 92% 29.79 in 0.5 mi NE 17.3 mph 26.5 mph 0.03 in Fog , Snow Snow
4:01 PM 30.2 °F 19.3 °F 28.4 °F 93% 29.77 in 0.5 mi NE 15.0 mph 26.5 mph 0.00 in Fog , Snow Snow
4:13 PM 30.2 °F 19.3 °F 28.4 °F 93% 29.76 in 0.5 mi NE 15.0 mph 24.2 mph 0.00 in Fog , Snow Snow
4:53 PM 30.0 °F 17.9 °F 28.0 °F 92% 29.75 in 0.5 mi NE 18.4 mph 31.1 mph 0.02 in Fog , Snow Snow
5:15 PM 30.2 °F 18.9 °F 26.6 °F 86% 29.73 in 1.2 mi NE 16.1 mph 31.1 mph 0.00 in Snow Light Snow
5:25 PM 30.2 °F 19.3 °F 28.4 °F 93% 29.73 in 1.0 mi NE 15.0 mph 27.6 mph 0.00 in Snow Light Snow
5:40 PM 28.4 °F 17.0 °F 26.6 °F 93% 29.72 in 0.8 mi NE 15.0 mph 29.9 mph 0.01 in Snow Light Snow
5:53 PM 28.9 °F 16.9 °F 27.0 °F 92% 29.73 in 0.8 mi NE 17.3 mph 25.3 mph 0.01 in Snow Light Snow
6:11 PM 28.4 °F 17.0 °F 26.6 °F 93% 29.71 in 0.5 mi NE 15.0 mph 28.8 mph 0.02 in Fog , Snow Snow
6:53 PM 28.0 °F 15.7 °F 26.1 °F 92% 29.70 in 0.5 mi NE 17.3 mph 27.6 mph 0.05 in Fog , Snow Snow
7:42 PM 28.4 °F 18.0 °F 26.6 °F 93% 29.67 in 0.8 mi NE 12.7 mph 26.5 mph 0.03 in Snow Light Snow
7:53 PM 28.0 °F 15.7 °F 25.0 °F 88% 29.68 in 0.8 mi NE 17.3 mph 29.9 mph 0.04 in Snow Light Snow
8:13 PM 28.4 °F 17.0 °F 24.8 °F 86% 29.65 in 0.8 mi NNE 15.0 mph 25.3 mph 0.02 in Snow Light Snow
8:23 PM 28.4 °F 16.6 °F 26.6 °F 93% 29.64 in 0.8 mi NNE 16.1 mph 28.8 mph 0.02 in Snow Light Snow
8:42 PM 28.4 °F 15.8 °F 24.8 °F 86% 29.64 in 1.0 mi NNE 18.4 mph 29.9 mph 0.03 in Snow Light Snow
8:53 PM 28.0 °F 14.9 °F 25.0 °F 88% 29.66 in 1.0 mi North 19.6 mph 33.4 mph 0.04 in Snow Light Snow
9:32 PM 28.4 °F 15.8 °F 24.8 °F 86% 29.64 in 0.8 mi NNE 18.4 mph 31.1 mph 0.01 in Snow Light Snow
9:53 PM 27.0 °F 12.2 °F 25.0 °F 92% 29.65 in 0.5 mi NNE 24.2 mph 29.9 mph 0.02 in Fog , Snow Snow
10:53 PM 25.0 °F 12.2 °F 23.0 °F 92% 29.70 in 0.5 mi North 16.1 mph 27.6 mph 0.03 in Fog , Snow Snow
11:17 PM 24.8 °F 14.6 °F 23.0 °F 93% 29.70 in 0.2 mi North 10.4 mph - 0.03 in Fog , Snow Heavy Snow
11:25 PM 24.8 °F 13.4 °F 23.0 °F 93% 29.71 in 0.2 mi North 12.7 mph 18.4 mph 0.06 in Fog , Snow Heavy Snow
11:53 PM 24.1 °F 11.0 °F 23.0 °F 96% 29.75 in 0.2 mi North 16.1 mph 25.3 mph 0.12 in Fog , Snow Heavy Snow